Home   Weather   Seoul   Past weeks

Flag for South Korea Past Weather in Seoul, South Korea — Yesterday and Last 2 Weeks

Now
41 °F

Fog.


Feels Like: 36 °F
Forecast: 32 / 52 °F
Wind: 8 mph from South

Location: Seoul / Kimp'O International Airport

Current Time: Dec 5, 2016 at 5:30:30 am

Latest Report: Dec 5, 2016 at 5:00 am


Visibility: 3 mi

Pressure: 29.98 "Hg

Humidity: 81%

Dew Point: 36 °F

Location of SeoulLocation

Past Weather in Seoul — Graph

°F

Seoul Temperature Yesterday

Maximum temperature yesterday: 50 °F (at 2:00 pm)
Minimum temperature yesterday: 32 °F (at 5:00 am)
Average temperature yesterday: 41 °F

High & Low Weather Summary for the Past Weeks

 TemperatureHumidityPressure
High61 °F (Nov 21, 2:00 pm)87% (Nov 26, 2:00 pm)30.57 "Hg (Nov 26, 2:00 pm)
Low18 °F (Nov 24, 7:00 am)17% (Nov 20, 2:00 pm)29.98 "Hg (Dec 5, 4:00 am)
Average37 °F53%30.29 "Hg
* Reported Nov 20 4:00 am — Dec 5 4:00 am, Seoul, Weather by CustomWeather, © 2016

Note: Actual official high and low records may vary slightly from our data, if they occured in-between our weather recording intervals... More about our weather records

Advertising

Seoul Weather History for the Previous 24 Hours

Scroll right to see more
 ConditionsComfort  
Time TempWeatherWind HumidityBarometerVisibility
4:00 am
Mon, Dec 5
43 °FFog.5 mph76%29.98 "Hg3 mi
3:00 am43 °FFog.8 mph76%30.01 "Hg3 mi
2:00 am43 °FLight rain. Fog.6 mph76%30.01 "Hg3 mi
1:00 am46 °FLight rain. Mostly cloudy.7 mph50%30.01 "Hg3 mi
12:00 am43 °FPartly cloudy.5 mph61%30.04 "Hg3 mi
11:00 pm
Sun, Dec 4
45 °FPartly cloudy.7 mph53%30.01 "Hg3 mi
10:00 pm43 °FPartly cloudy.6 mph53%30.04 "Hg3 mi
9:00 pm43 °FPartly cloudy.3 mph57%30.04 "Hg3 mi
8:00 pm41 °FPartly cloudy.5 mph53%30.07 "Hg3 mi
7:00 pm46 °FPartly cloudy.5 mph50%30.07 "Hg3 mi
6:00 pm46 °FPartly cloudy.5 mph50%30.04 "Hg3 mi
5:00 pm48 °FBroken clouds.5 mph50%30.04 "Hg3 mi
4:00 pm48 °FPartly sunny.3 mph46%30.04 "Hg4 mi
3:00 pm48 °FClear.6 mph43%30.04 "Hg4 mi
2:00 pm50 °FClear.6 mph37%30.04 "Hg4 mi
1:00 pm48 °FClear.5 mph46%30.04 "Hg4 mi
12:00 pm46 °FHaze.3 mph50%30.09 "Hg3 mi
11:00 am45 °FHaze.1 mph61%30.12 "Hg3 mi
10:00 am41 °FFog.2 mph70%30.12 "Hg2 mi
9:00 am39 °FFog.2 mph81%30.12 "Hg2 mi
8:00 am34 °FFog.3 mph87%30.12 "Hg2 mi
7:00 am34 °FFog.1 mph81%30.12 "Hg2 mi
6:00 am34 °FFog.3 mph81%30.12 "Hg2 mi
5:00 am32 °FIce fog.1 mph80%30.15 "Hg2 mi
Weather by CustomWeather, © 2016

See weather overviewHow to use our weather pages